Time,TemperatureF,DewpointF,PressureIn,WindDirection,WindDirectionDegrees,WindSpeedMPH,WindSpeedGustMPH,Humidity,HourlyPrecipIn,Conditions,Clouds,dailyrainin,SoftwareType,DateUTC
2013-05-11 00:11:00,73.0,57.0,29.49,WNW,285,5.0,-999.0,56,-99.99,,,0.00,,2013-05-11 07:11:00,
2013-05-11 00:21:00,73.0,57.0,29.49,WNW,285,5.0,-999.0,56,-99.99,,,0.00,,2013-05-11 07:21:00,
2013-05-11 00:32:00,73.0,57.0,29.49,WNW,285,5.0,-999.0,56,-99.99,,,0.00,,2013-05-11 07:32:00,
2013-05-11 00:42:00,73.0,57.0,29.49,WNW,285,5.0,-999.0,56,-99.99,,,0.00,,2013-05-11 07:42:00,
2013-05-11 01:12:00,72.0,56.0,29.49,SSE,147,7.0,-999.0,58,0.00,,,0.00,,2013-05-11 08:12:00,
2013-05-11 01:21:00,72.0,56.0,29.49,SSE,147,7.0,-999.0,58,0.00,,,0.00,,2013-05-11 08:21:00,
2013-05-11 01:31:00,72.0,56.0,29.49,SSE,147,7.0,-999.0,58,0.00,,,0.00,,2013-05-11 08:31:00,
2013-05-11 01:42:00,72.0,56.0,29.49,SSE,147,7.0,-999.0,58,0.00,,,0.00,,2013-05-11 08:42:00,
2013-05-11 02:11:00,71.0,55.0,29.48,SSE,156,5.0,-999.0,58,0.00,,,0.00,,2013-05-11 09:11:00,
2013-05-11 02:21:00,71.0,55.0,29.48,SSE,156,5.0,-999.0,58,0.00,,,0.00,,2013-05-11 09:21:00,
2013-05-11 02:32:00,71.0,55.0,29.48,SSE,156,5.0,-999.0,58,0.00,,,0.00,,2013-05-11 09:32:00,
2013-05-11 02:42:00,71.0,55.0,29.48,SSE,156,5.0,-999.0,58,0.00,,,0.00,,2013-05-11 09:42:00,
2013-05-11 03:12:00,70.0,54.0,29.48,SSE,157,7.0,-999.0,57,0.00,,,0.00,,2013-05-11 10:12:00,
2013-05-11 03:22:00,70.0,54.0,29.48,SSE,157,7.0,-999.0,57,0.00,,,0.00,,2013-05-11 10:22:00,
2013-05-11 03:32:00,70.0,54.0,29.48,SSE,157,7.0,-999.0,57,0.00,,,0.00,,2013-05-11 10:32:00,
2013-05-11 03:42:00,70.0,54.0,29.48,SSE,157,7.0,-999.0,57,0.00,,,0.00,,2013-05-11 10:42:00,
2013-05-11 04:11:00,69.0,54.0,29.48,SSE,155,3.0,-999.0,59,0.00,,,0.00,,2013-05-11 11:11:00,
2013-05-11 04:21:00,69.0,54.0,29.48,SSE,155,3.0,-999.0,59,0.00,,,0.00,,2013-05-11 11:21:00,
2013-05-11 04:32:00,69.0,54.0,29.48,SSE,155,3.0,-999.0,59,0.00,,,0.00,,2013-05-11 11:32:00,
2013-05-11 04:42:00,69.0,54.0,29.48,SSE,155,3.0,-999.0,59,0.00,,,0.00,,2013-05-11 11:42:00,
2013-05-11 05:11:00,67.0,55.0,29.48,NNE,28,4.0,-999.0,65,0.00,,,0.00,,2013-05-11 12:11:00,
2013-05-11 05:21:00,67.0,55.0,29.48,NNE,28,4.0,-999.0,65,0.00,,,0.00,,2013-05-11 12:21:00,
2013-05-11 05:32:00,67.0,55.0,29.48,NNE,28,4.0,-999.0,65,0.00,,,0.00,,2013-05-11 12:32:00,
2013-05-11 05:42:00,67.0,55.0,29.48,NNE,28,4.0,-999.0,65,0.00,,,0.00,,2013-05-11 12:42:00,
2013-05-11 06:11:00,67.0,54.0,29.47,SE,143,10.0,-999.0,63,0.00,,,-99.99,,2013-05-11 13:11:00,
2013-05-11 06:21:00,67.0,54.0,29.47,SE,143,10.0,-999.0,63,0.00,,,-99.99,,2013-05-11 13:21:00,
2013-05-11 06:31:00,67.0,54.0,29.47,SE,143,10.0,-999.0,63,0.00,,,-99.99,,2013-05-11 13:31:00,
2013-05-11 06:41:00,67.0,54.0,29.47,SE,143,10.0,-999.0,63,0.00,,,-99.99,,2013-05-11 13:41:00,
2013-05-11 07:11:00,67.0,54.0,29.49,SSE,156,5.0,-999.0,62,0.00,,,0.00,,2013-05-11 14:11:00,
2013-05-11 07:21:00,67.0,54.0,29.49,SSE,156,5.0,-999.0,62,0.00,,,0.00,,2013-05-11 14:21:00,
2013-05-11 07:32:00,67.0,54.0,29.49,SSE,156,5.0,-999.0,62,0.00,,,0.00,,2013-05-11 14:32:00,
2013-05-11 07:41:00,67.0,54.0,29.49,SSE,156,5.0,-999.0,62,0.00,,,0.00,,2013-05-11 14:41:00,
2013-05-11 08:11:00,71.0,53.0,29.50,SE,129,3.0,-999.0,52,0.00,,,0.00,,2013-05-11 15:11:00,
2013-05-11 08:21:00,71.0,53.0,29.50,SE,129,3.0,-999.0,52,0.00,,,0.00,,2013-05-11 15:21:00,
2013-05-11 08:32:00,71.0,53.0,29.50,SE,129,3.0,-999.0,52,0.00,,,0.00,,2013-05-11 15:32:00,
2013-05-11 08:42:00,71.0,53.0,29.50,SE,129,3.0,-999.0,52,0.00,,,0.00,,2013-05-11 15:42:00,
2013-05-11 09:12:00,77.0,53.0,29.49,NNE,33,3.0,-999.0,43,0.00,,,0.00,,2013-05-11 16:12:00,
2013-05-11 09:22:00,77.0,53.0,29.49,NNE,33,3.0,-999.0,43,0.00,,,0.00,,2013-05-11 16:22:00,
2013-05-11 09:33:00,77.0,53.0,29.49,NNE,33,3.0,-999.0,43,0.00,,,0.00,,2013-05-11 16:33:00,
2013-05-11 09:42:00,77.0,53.0,29.49,NNE,33,3.0,-999.0,43,0.00,,,0.00,,2013-05-11 16:42:00,
2013-05-11 10:12:00,83.0,49.0,29.48,WSW,251,1.0,-999.0,31,0.00,,,0.00,,2013-05-11 17:12:00,
2013-05-11 10:22:00,83.0,49.0,29.48,WSW,251,1.0,-999.0,31,0.00,,,0.00,,2013-05-11 17:22:00,
2013-05-11 10:31:00,83.0,49.0,29.48,WSW,251,1.0,-999.0,31,0.00,,,0.00,,2013-05-11 17:31:00,
2013-05-11 10:41:00,83.0,49.0,29.48,WSW,251,1.0,-999.0,31,0.00,,,0.00,,2013-05-11 17:41:00,
2013-05-11 11:11:00,85.0,53.0,29.48,WNW,285,7.0,-999.0,33,0.00,,,0.00,,2013-05-11 18:11:00,
2013-05-11 11:21:00,85.0,53.0,29.48,WNW,285,7.0,-999.0,33,0.00,,,0.00,,2013-05-11 18:21:00,
2013-05-11 11:32:00,85.0,53.0,29.48,WNW,285,7.0,-999.0,33,0.00,,,0.00,,2013-05-11 18:32:00,
2013-05-11 11:41:00,85.0,53.0,29.48,WNW,285,7.0,-999.0,33,0.00,,,0.00,,2013-05-11 18:41:00,
2013-05-11 12:11:00,90.0,53.0,29.47,NW,313,4.0,-999.0,29,0.01,,,0.01,,2013-05-11 19:11:00,
2013-05-11 12:21:00,90.0,53.0,29.47,NW,313,4.0,-999.0,29,0.01,,,0.01,,2013-05-11 19:21:00,
2013-05-11 12:32:00,90.0,53.0,29.47,NW,313,4.0,-999.0,29,0.01,,,0.01,,2013-05-11 19:32:00,
2013-05-11 12:41:00,90.0,53.0,29.47,NW,313,4.0,-999.0,29,0.01,,,0.01,,2013-05-11 19:41:00,
2013-05-11 13:12:00,89.0,54.0,29.45,SW,229,4.0,-999.0,30,0.00,,,0.01,,2013-05-11 20:12:00,
2013-05-11 13:22:00,89.0,54.0,29.45,SW,229,4.0,-999.0,30,0.00,,,0.01,,2013-05-11 20:22:00,
2013-05-11 13:32:00,89.0,54.0,29.45,SW,229,4.0,-999.0,30,0.00,,,0.01,,2013-05-11 20:32:00,
2013-05-11 13:42:00,89.0,54.0,29.45,SW,229,4.0,-999.0,30,0.00,,,0.01,,2013-05-11 20:42:00,
2013-05-11 14:11:00,92.0,53.0,29.44,SW,226,5.0,-999.0,27,0.00,,,0.01,,2013-05-11 21:11:00,
2013-05-11 14:21:00,92.0,53.0,29.44,SW,226,5.0,-999.0,27,0.00,,,0.01,,2013-05-11 21:21:00,
2013-05-11 14:33:00,92.0,53.0,29.44,SW,226,5.0,-999.0,27,0.00,,,0.01,,2013-05-11 21:33:00,
2013-05-11 14:43:00,92.0,53.0,29.44,SW,226,5.0,-999.0,27,0.00,,,0.01,,2013-05-11 21:43:00,
2013-05-11 15:13:00,95.0,52.0,29.41,SSE,157,3.0,-999.0,24,0.00,,,0.00,,2013-05-11 22:13:00,
2013-05-11 15:22:00,95.0,52.0,29.41,SSE,157,3.0,-999.0,24,0.00,,,0.00,,2013-05-11 22:22:00,
2013-05-11 15:33:00,95.0,52.0,29.41,SSE,157,3.0,-999.0,24,0.00,,,0.00,,2013-05-11 22:33:00,
2013-05-11 15:42:00,95.0,52.0,29.41,SSE,157,3.0,-999.0,24,0.00,,,0.00,,2013-05-11 22:42:00,
2013-05-11 16:12:00,96.0,54.0,29.39,West,271,6.0,-999.0,24,0.00,,,0.00,,2013-05-11 23:12:00,
2013-05-11 16:22:00,96.0,54.0,29.39,West,271,6.0,-999.0,24,0.00,,,0.00,,2013-05-11 23:22:00,
2013-05-11 16:32:00,96.0,54.0,29.39,West,271,6.0,-999.0,24,0.00,,,0.00,,2013-05-11 23:32:00,
2013-05-11 16:42:00,96.0,54.0,29.39,West,271,6.0,-999.0,24,0.00,,,0.00,,2013-05-11 23:42:00,
2013-05-11 17:11:00,99.0,49.0,29.38,NW,318,3.0,-999.0,19,0.00,,,0.00,,2013-05-12 00:11:00,
2013-05-11 17:21:00,99.0,49.0,29.38,NW,318,3.0,-999.0,19,0.00,,,0.00,,2013-05-12 00:21:00,
2013-05-11 17:32:00,99.0,49.0,29.38,NW,318,3.0,-999.0,19,0.00,,,0.00,,2013-05-12 00:32:00,
2013-05-11 17:41:00,99.0,49.0,29.38,NW,318,3.0,-999.0,19,0.00,,,0.00,,2013-05-12 00:41:00,
2013-05-11 18:11:00,98.0,42.0,29.37,WNW,293,5.0,-999.0,15,0.01,,,0.01,,2013-05-12 01:11:00,
2013-05-11 19:11:00,97.0,46.0,29.36,WNW,285,3.0,-999.0,18,0.00,,,0.01,,2013-05-12 02:11:00,
2013-05-11 19:41:00,97.0,46.0,29.36,WNW,285,3.0,-999.0,18,0.00,,,0.01,,2013-05-12 02:41:00,
2013-05-11 21:12:00,87.0,45.0,29.38,NE,49,2.0,-999.0,24,-99.99,,,0.00,,2013-05-12 04:12:00,
2013-05-11 22:11:00,86.0,48.0,29.40,SSE,148,11.0,-999.0,27,0.00,,,0.01,,2013-05-12 05:11:00,
2013-05-11 22:22:00,86.0,48.0,29.40,SSE,148,11.0,-999.0,27,0.00,,,0.01,,2013-05-12 05:22:00,
2013-05-11 22:31:00,86.0,48.0,29.40,SSE,148,11.0,-999.0,27,0.00,,,0.01,,2013-05-12 05:31:00,
2013-05-11 22:42:00,86.0,48.0,29.40,SSE,148,11.0,-999.0,27,0.00,,,0.01,,2013-05-12 05:42:00,
2013-05-11 23:11:00,83.0,50.0,29.42,ENE,69,1.0,-999.0,32,0.00,,,-99.99,,2013-05-12 06:11:00,
2013-05-11 23:21:00,83.0,50.0,29.42,ENE,69,1.0,-999.0,32,0.00,,,-99.99,,2013-05-12 06:21:00,
2013-05-11 23:32:00,83.0,50.0,29.42,ENE,69,1.0,-999.0,32,0.00,,,-99.99,,2013-05-12 06:32:00,
2013-05-11 23:42:00,83.0,50.0,29.42,ENE,69,1.0,-999.0,32,0.00,,,-99.99,,2013-05-12 06:42:00,